| time (UTC) | temp F | wind direction | speed MPH | gust MPH | rain 1hr in | rain 24hr in | rain mn in | humidity % | barometer mb |
| 20260507051214 | 45 | 307 | 1.0 | 2.0 | 0.00 | 0.00 | 0.00 | 61 | 1014.7 |
| 20260507050711 | 45 | 310 | 1.0 | 2.0 | 0.00 | 0.00 | 0.00 | 61 | 1014.6 |
| 20260507050208 | 45 | 311 | 1.0 | 2.0 | 0.00 | 0.00 | 0.00 | 61 | 1014.7 |
| 20260507045704 | 45 | 326 | 1.0 | 1.0 | 0.00 | 0.00 | 0.00 | 63 | 1014.7 |
| 20260507045201 | 45 | 313 | 1.0 | 3.0 | 0.00 | 0.00 | 0.00 | 61 | 1014.6 |
| 20260507044658 | 45 | 303 | 2.0 | 2.0 | 0.00 | 0.00 | 0.00 | 62 | 1014.6 |
| 20260507044154 | 45 | 297 | 1.0 | 2.0 | 0.00 | 0.00 | 0.00 | 62 | 1014.8 |
| 20260507043651 | 46 | 301 | 1.0 | 1.0 | 0.00 | 0.00 | 0.00 | 61 | 1014.6 |
| 20260507043148 | 46 | 301 | 1.0 | 1.0 | 0.00 | 0.00 | 0.00 | 60 | 1014.6 |
| 20260507042644 | 46 | 292 | 1.0 | 1.0 | 0.00 | 0.00 | 0.00 | 60 | 1014.7 |
| 20260507042139 | 46 | 284 | 1.0 | 1.0 | 0.00 | 0.00 | 0.00 | 60 | 1014.6 |
| 20260507041637 | 46 | 300 | 1.0 | 2.0 | 0.00 | 0.00 | 0.00 | 61 | 1014.5 |
| 20260507041133 | 46 | 298 | 2.0 | 2.0 | 0.00 | 0.00 | 0.00 | 60 | 1014.5 |
| 20260507040630 | 46 | 303 | 1.0 | 3.0 | 0.00 | 0.00 | 0.00 | 61 | 1014.5 |
| 20260507040127 | 46 | 285 | 2.0 | 2.0 | 0.00 | 0.00 | 0.00 | 60 | 1014.6 |
| 20260507035622 | 46 | 289 | 2.0 | 2.0 | 0.00 | 0.00 | 0.00 | 60 | 1014.5 |
| 20260507035118 | 46 | 294 | 2.0 | 2.0 | 0.00 | 0.00 | 0.00 | 60 | 1014.5 |
| 20260507034615 | 46 | 308 | 1.0 | 2.0 | 0.00 | 0.00 | 0.00 | 60 | 1014.6 |
| 20260507034113 | 47 | 310 | 2.0 | 2.0 | 0.00 | 0.00 | 0.00 | 59 | 1014.6 |
| 20260507033611 | 47 | 326 | 1.0 | 2.0 | 0.00 | 0.00 | 0.00 | 59 | 1014.7 |
| 20260507033108 | 47 | 319 | 1.0 | 1.0 | 0.00 | 0.00 | 0.00 | 57 | 1014.6 |
| 20260507032605 | 47 | 324 | 1.0 | 2.0 | 0.00 | 0.00 | 0.00 | 56 | 1014.7 |
| 20260507032101 | 47 | 283 | 2.0 | 2.0 | 0.00 | 0.00 | 0.00 | 56 | 1014.8 |
| 20260507031558 | 47 | 283 | 1.0 | 2.0 | 0.00 | 0.00 | 0.00 | 56 | 1014.9 |
| 20260507031055 | 47 | 288 | 2.0 | 2.0 | 0.00 | 0.00 | 0.00 | 55 | 1014.9 |
| 20260507030551 | 47 | 285 | 3.0 | 3.0 | 0.00 | 0.00 | 0.00 | 54 | 1014.9 |
| 20260507030049 | 47 | 289 | 1.0 | 1.0 | 0.00 | 0.00 | 0.00 | 55 | 1014.9 |
| 20260507025546 | 48 | 297 | 1.0 | 2.0 | 0.00 | 0.00 | 0.00 | 55 | 1014.9 |
| 20260507025044 | 48 | 287 | 2.0 | 3.0 | 0.00 | 0.00 | 0.00 | 54 | 1014.8 |
| 20260507024542 | 48 | 310 | 2.0 | 4.0 | 0.00 | 0.00 | 0.00 | 53 | 1014.9 |
| 20260507024038 | 48 | 290 | 3.0 | 3.0 | 0.00 | 0.00 | 0.00 | 53 | 1014.8 |
| 20260507023534 | 48 | 298 | 1.0 | 3.0 | 0.00 | 0.00 | 0.00 | 54 | 1014.8 |
| 20260507023032 | 48 | 297 | 2.0 | 3.0 | 0.00 | 0.00 | 0.00 | 53 | 1014.9 |
| 20260507022528 | 48 | 307 | 0.0 | 2.0 | 0.00 | 0.00 | 0.00 | 54 | 1014.8 |
| 20260507022029 | 48 | 293 | 1.0 | 3.0 | 0.00 | 0.00 | 0.00 | 53 | 1014.8 |
| 20260507021525 | 48 | 307 | 1.0 | 3.0 | 0.00 | 0.00 | 0.00 | 55 | 1015.0 |
| 20260507021022 | 48 | 309 | 1.0 | 2.0 | 0.00 | 0.00 | 0.00 | 55 | 1014.6 |
| 20260507020519 | 48 | 299 | 1.0 | 1.0 | 0.00 | 0.00 | 0.00 | 55 | 1014.6 |
| 20260507020016 | 48 | 311 | 1.0 | 2.0 | 0.00 | 0.00 | 0.00 | 54 | 1014.6 |
| 20260507015514 | 48 | 286 | 1.0 | 1.0 | 0.00 | 0.00 | 0.00 | 54 | 1014.5 |
| 20260507015011 | 48 | 295 | 1.0 | 3.0 | 0.00 | 0.00 | 0.00 | 54 | 1014.7 |
| 20260507014508 | 48 | 302 | 0.0 | 1.0 | 0.00 | 0.00 | 0.00 | 54 | 1014.6 |
| 20260507014003 | 48 | 290 | 1.0 | 2.0 | 0.00 | 0.00 | 0.00 | 53 | 1014.6 |
| 20260507013500 | 48 | 325 | 0.0 | 0.0 | 0.00 | 0.00 | 0.00 | 53 | 1014.5 |
| 20260507012957 | 48 | 324 | 0.0 | 1.0 | 0.00 | 0.00 | 0.00 | 53 | 1014.4 |
| 20260507012454 | 48 | 331 | 0.0 | 1.0 | 0.00 | 0.00 | 0.00 | 52 | 1014.5 |
| 20260507011951 | 48 | 292 | 0.0 | 1.0 | 0.00 | 0.00 | 0.00 | 52 | 1014.3 |
| 20260507011448 | 49 | 296 | 1.0 | 2.0 | 0.00 | 0.00 | 0.00 | 51 | 1014.2 |
| 20260507010943 | 49 | 290 | 3.0 | 3.0 | 0.00 | 0.00 | 0.00 | 50 | 1014.4 |
| 20260507010438 | 49 | 289 | 2.0 | 4.0 | 0.00 | 0.00 | 0.00 | 49 | 1014.4 |
| 20260507005935 | 49 | 296 | 2.0 | 2.0 | 0.00 | 0.00 | 0.00 | 49 | 1014.5 |
| 20260507005433 | 49 | 268 | 2.0 | 3.0 | 0.00 | 0.00 | 0.00 | 48 | 1014.3 |
| 20260507004930 | 49 | 255 | 2.0 | 3.0 | 0.00 | 0.00 | 0.00 | 48 | 1014.4 |
| 20260507004426 | 49 | 301 | 1.0 | 2.0 | 0.00 | 0.00 | 0.00 | 49 | 1014.4 |
| 20260507003923 | 49 | 303 | 1.0 | 2.0 | 0.00 | 0.00 | 0.00 | 50 | 1014.2 |
| 20260507003418 | 49 | 308 | 2.0 | 2.0 | 0.00 | 0.00 | 0.00 | 50 | 1014.5 |
| 20260507002914 | 49 | 291 | 1.0 | 2.0 | 0.00 | 0.00 | 0.00 | 50 | 1014.3 |
| 20260507002410 | 50 | 270 | 4.0 | 6.0 | 0.00 | 0.00 | 0.00 | 46 | 1014.2 |
| 20260507001908 | 50 | 297 | 4.0 | 4.0 | 0.00 | 0.00 | 0.00 | 45 | 1014.3 |
| 20260507001404 | 50 | 295 | 3.0 | 6.0 | 0.00 | 0.00 | 0.00 | 47 | 1014.2 |
| 20260507000902 | 50 | 281 | 5.0 | 9.0 | 0.00 | 0.00 | 0.00 | 44 | 1014.1 |
| 20260507000357 | 50 | 302 | 7.0 | 10.0 | 0.00 | 0.00 | 0.00 | 44 | 1014.1 |
| 20260506235853 | 51 | 270 | 8.0 | 10.0 | 0.00 | 0.00 | 0.00 | 44 | 1013.9 |
| 20260506235350 | 51 | 306 | 4.0 | 8.0 | 0.00 | 0.00 | 0.00 | 46 | 1014.1 |
| 20260506234846 | 51 | 271 | 6.0 | 9.0 | 0.00 | 0.00 | 0.00 | 45 | 1014.1 |
| 20260506234344 | 50 | 258 | 4.0 | 4.0 | 0.00 | 0.00 | 0.00 | 45 | 1014.2 |
| 20260506233841 | 51 | 300 | 4.0 | 8.0 | 0.00 | 0.00 | 0.00 | 46 | 1014.1 |
| 20260506233337 | 51 | 291 | 6.0 | 8.0 | 0.00 | 0.00 | 0.00 | 44 | 1013.9 |
| 20260506232834 | 51 | 295 | 5.0 | 10.0 | 0.00 | 0.00 | 0.00 | 44 | 1013.8 |
| 20260506232330 | 51 | 301 | 7.0 | 10.0 | 0.00 | 0.00 | 0.00 | 43 | 1014.1 |
| 20260506231826 | 51 | 278 | 6.0 | 11.0 | 0.00 | 0.00 | 0.00 | 42 | 1013.9 |
| 20260506231324 | 51 | 245 | 10.0 | 14.0 | 0.00 | 0.00 | 0.00 | 42 | 1013.8 |
| 20260506230821 | 52 | 306 | 9.0 | 11.0 | 0.00 | 0.00 | 0.00 | 42 | 1013.9 |
| 20260506230318 | 52 | 288 | 5.0 | 7.0 | 0.00 | 0.00 | 0.00 | 45 | 1013.7 |
| 20260506225814 | 52 | 305 | 6.0 | 10.0 | 0.00 | 0.00 | 0.00 | 44 | 1013.7 |
| 20260506225312 | 51 | 285 | 7.0 | 8.0 | 0.00 | 0.00 | 0.00 | 44 | 1013.9 |
| 20260506224809 | 51 | 311 | 6.0 | 10.0 | 0.00 | 0.00 | 0.00 | 44 | 1013.9 |
| 20260506224306 | 51 | 273 | 6.0 | 10.0 | 0.00 | 0.00 | 0.00 | 44 | 1013.9 |
| 20260506223802 | 52 | 263 | 12.0 | 16.0 | 0.00 | 0.00 | 0.00 | 43 | 1013.8 |
| 20260506223257 | 52 | 302 | 10.0 | 13.0 | 0.00 | 0.00 | 0.00 | 45 | 1013.9 |
| 20260506222754 | 52 | 276 | 9.0 | 10.0 | 0.00 | 0.00 | 0.00 | 43 | 1013.9 |
| 20260506222250 | 52 | 307 | 9.0 | 10.0 | 0.00 | 0.00 | 0.00 | 44 | 1013.9 |
| 20260506221748 | 52 | 300 | 7.0 | 11.0 | 0.00 | 0.00 | 0.00 | 44 | 1014.0 |
| 20260506221246 | 52 | 268 | 11.0 | 11.0 | 0.00 | 0.00 | 0.00 | 43 | 1013.9 |
| 20260506220743 | 52 | 309 | 9.0 | 14.0 | 0.00 | 0.00 | 0.00 | 43 | 1013.9 |
| 20260506220238 | 53 | 299 | 8.0 | 10.0 | 0.00 | 0.00 | 0.00 | 42 | 1013.9 |
| 20260506215735 | 53 | 327 | 6.0 | 11.0 | 0.00 | 0.00 | 0.00 | 44 | 1013.9 |
| 20260506215230 | 53 | 285 | 10.0 | 14.0 | 0.00 | 0.00 | 0.00 | 43 | 1013.9 |
| 20260506214727 | 53 | 294 | 8.0 | 10.0 | 0.00 | 0.00 | 0.00 | 43 | 1013.9 |
| 20260506214224 | 52 | 288 | 4.0 | 4.0 | 0.00 | 0.00 | 0.00 | 46 | 1013.8 |
| 20260506213722 | 52 | 279 | 5.0 | 6.0 | 0.00 | 0.00 | 0.00 | 44 | 1013.8 |
| 20260506213219 | 53 | 292 | 7.0 | 10.0 | 0.00 | 0.00 | 0.00 | 44 | 1013.9 |
| 20260506212717 | 52 | 275 | 9.0 | 11.0 | 0.00 | 0.00 | 0.00 | 44 | 1013.8 |
| 20260506212212 | 52 | 286 | 10.0 | 11.0 | 0.00 | 0.00 | 0.00 | 44 | 1013.8 |
| 20260506211707 | 52 | 301 | 6.0 | 8.0 | 0.00 | 0.00 | 0.00 | 44 | 1013.6 |
| 20260506211204 | 52 | 296 | 8.0 | 13.0 | 0.00 | 0.00 | 0.00 | 43 | 1013.5 |
| 20260506210701 | 52 | 262 | 5.0 | 9.0 | 0.00 | 0.00 | 0.00 | 44 | 1013.7 |
| 20260506210158 | 53 | 338 | 7.0 | 10.0 | 0.00 | 0.00 | 0.00 | 45 | 1013.8 |
| 20260506205655 | 52 | 359 | 4.0 | 9.0 | 0.00 | 0.00 | 0.00 | 45 | 1013.6 |
| 20260506205150 | 52 | 325 | 9.0 | 10.0 | 0.00 | 0.00 | 0.00 | 43 | 1013.8 |
| 20260506204648 | 52 | 311 | 9.0 | 11.0 | 0.00 | 0.00 | 0.00 | 45 | 1013.8 |
| 20260506204144 | 52 | 319 | 5.0 | 8.0 | 0.00 | 0.00 | 0.00 | 45 | 1013.6 |
| 20260506203643 | 51 | 345 | 9.0 | 10.0 | 0.00 | 0.00 | 0.00 | 46 | 1013.6 |
| 20260506203139 | 52 | 304 | 4.0 | 7.0 | 0.00 | 0.00 | 0.00 | 46 | 1013.8 |
| 20260506202637 | 51 | 267 | 3.0 | 10.0 | 0.00 | 0.00 | 0.00 | 47 | 1013.8 |
| 20260506202133 | 51 | 289 | 4.0 | 7.0 | 0.00 | 0.00 | 0.00 | 44 | 1013.9 |
| 20260506201630 | 52 | 265 | 6.0 | 8.0 | 0.00 | 0.00 | 0.00 | 44 | 1013.9 |
| 20260506201127 | 52 | 283 | 4.0 | 7.0 | 0.00 | 0.00 | 0.00 | 46 | 1014.0 |
| 20260506200623 | 52 | 310 | 7.0 | 10.0 | 0.00 | 0.00 | 0.00 | 45 | 1013.9 |
| 20260506200120 | 52 | 297 | 4.0 | 9.0 | 0.00 | 0.00 | 0.00 | 47 | 1014.2 |
| 20260506195617 | 52 | 293 | 5.0 | 10.0 | 0.00 | 0.00 | 0.00 | 49 | 1013.9 |
| 20260506195113 | 52 | 277 | 4.0 | 8.0 | 0.00 | 0.00 | 0.00 | 47 | 1013.9 |
| 20260506194611 | 51 | 265 | 6.0 | 7.0 | 0.00 | 0.00 | 0.00 | 48 | 1014.1 |
| 20260506194107 | 51 | 284 | 3.0 | 7.0 | 0.00 | 0.00 | 0.00 | 46 | 1014.1 |
| 20260506193605 | 51 | 295 | 6.0 | 13.0 | 0.00 | 0.00 | 0.00 | 46 | 1014.2 |
| 20260506193102 | 52 | 296 | 8.0 | 13.0 | 0.00 | 0.00 | 0.00 | 46 | 1014.1 |
| 20260506192558 | 51 | 305 | 6.0 | 10.0 | 0.00 | 0.00 | 0.00 | 46 | 1014.3 |
| 20260506192054 | 51 | 272 | 2.0 | 7.0 | 0.00 | 0.00 | 0.00 | 48 | 1014.2 |
| 20260506191551 | 51 | 262 | 3.0 | 6.0 | 0.00 | 0.00 | 0.00 | 48 | 1014.3 |
| 20260506191047 | 51 | 306 | 3.0 | 4.0 | 0.00 | 0.00 | 0.00 | 47 | 1014.2 |
| 20260506190544 | 51 | 332 | 0.0 | 2.0 | 0.00 | 0.00 | 0.00 | 45 | 1014.4 |
| 20260506190041 | 50 | 264 | 4.0 | 8.0 | 0.00 | 0.00 | 0.00 | 48 | 1014.3 |
| 20260506185539 | 51 | 277 | 7.0 | 10.0 | 0.00 | 0.00 | 0.00 | 48 | 1014.2 |
| 20260506185035 | 52 | 279 | 4.0 | 7.0 | 0.00 | 0.00 | 0.00 | 47 | 1014.2 |
| 20260506184533 | 51 | 303 | 9.0 | 10.0 | 0.00 | 0.00 | 0.00 | 46 | 1014.4 |
| 20260506184030 | 51 | 336 | 5.0 | 10.0 | 0.00 | 0.00 | 0.00 | 50 | 1014.4 |
| 20260506183525 | 51 | 11 | 1.0 | 8.0 | 0.00 | 0.00 | 0.00 | 50 | 1014.4 |
| 20260506183022 | 51 | 315 | 4.0 | 4.0 | 0.00 | 0.00 | 0.00 | 47 | 1014.3 |
| 20260506182520 | 51 | 312 | 5.0 | 7.0 | 0.00 | 0.00 | 0.00 | 47 | 1014.4 |
| 20260506182017 | 50 | 301 | 4.0 | 4.0 | 0.00 | 0.00 | 0.00 | 48 | 1014.3 |
| 20260506181515 | 52 | 321 | 10.0 | 11.0 | 0.00 | 0.00 | 0.00 | 47 | 1014.2 |
| 20260506181011 | 51 | 350 | 4.0 | 9.0 | 0.00 | 0.00 | 0.00 | 47 | 1014.1 |
| 20260506180508 | 51 | 349 | 8.0 | 9.0 | 0.00 | 0.00 | 0.00 | 47 | 1014.2 |
| 20260506180005 | 50 | 302 | 5.0 | 10.0 | 0.00 | 0.00 | 0.00 | 51 | 1014.3 |
| 20260506175501 | 50 | 293 | 6.0 | 9.0 | 0.00 | 0.00 | 0.00 | 49 | 1014.3 |
| 20260506174957 | 50 | 330 | 2.0 | 6.0 | 0.00 | 0.00 | 0.00 | 50 | 1014.4 |
| 20260506174456 | 49 | 276 | 7.0 | 9.0 | 0.00 | 0.00 | 0.00 | 47 | 1014.3 |
| 20260506173952 | 50 | 329 | 5.0 | 8.0 | 0.00 | 0.00 | 0.00 | 49 | 1014.5 |
| 20260506173450 | 50 | 340 | 7.0 | 9.0 | 0.00 | 0.00 | 0.00 | 47 | 1014.4 |
| 20260506172946 | 50 | 276 | 6.0 | 11.0 | 0.00 | 0.00 | 0.00 | 46 | 1014.6 |
| 20260506172444 | 50 | 349 | 8.0 | 10.0 | 0.00 | 0.00 | 0.00 | 48 | 1014.7 |
| 20260506171940 | 50 | 319 | 8.0 | 10.0 | 0.00 | 0.00 | 0.00 | 48 | 1014.8 |
| 20260506171437 | 50 | 260 | 11.0 | 16.0 | 0.00 | 0.00 | 0.00 | 47 | 1015.1 |
| 20260506170935 | 50 | 355 | 3.0 | 4.0 | 0.00 | 0.00 | 0.00 | 48 | 1014.9 |
| 20260506170432 | 50 | 358 | 5.0 | 7.0 | 0.00 | 0.00 | 0.00 | 50 | 1014.7 |
| 20260506165930 | 49 | 40 | 4.0 | 9.0 | 0.00 | 0.00 | 0.00 | 48 | 1014.6 |
| 20260506165428 | 50 | 284 | 5.0 | 7.0 | 0.00 | 0.00 | 0.00 | 48 | 1014.7 |
| 20260506164924 | 50 | 327 | 2.0 | 7.0 | 0.00 | 0.00 | 0.00 | 48 | 1014.6 |
| 20260506164421 | 49 | 275 | 9.0 | 11.0 | 0.00 | 0.00 | 0.00 | 49 | 1014.8 |
| 20260506163920 | 49 | 326 | 6.0 | 10.0 | 0.00 | 0.00 | 0.00 | 50 | 1014.8 |
| 20260506163419 | 49 | 332 | 6.0 | 11.0 | 0.00 | 0.00 | 0.00 | 51 | 1014.6 |
| 20260506162909 | 49 | 354 | 5.0 | 7.0 | 0.00 | 0.00 | 0.00 | 52 | 1014.8 |
| 20260506162407 | 48 | 331 | 5.0 | 7.0 | 0.00 | 0.00 | 0.00 | 54 | 1014.7 |
| 20260506161904 | 49 | 325 | 6.0 | 13.0 | 0.00 | 0.00 | 0.00 | 51 | 1014.4 |
| 20260506161401 | 50 | 2 | 10.0 | 10.0 | 0.00 | 0.00 | 0.00 | 49 | 1014.7 |
| 20260506160854 | 49 | 348 | 6.0 | 13.0 | 0.00 | 0.00 | 0.00 | 49 | 1014.4 |
| 20260506160350 | 49 | 314 | 9.0 | 11.0 | 0.00 | 0.00 | 0.00 | 53 | 1014.5 |
| 20260506155848 | 49 | 351 | 8.0 | 10.0 | 0.00 | 0.00 | 0.00 | 51 | 1014.6 |
| 20260506155344 | 50 | 329 | 7.0 | 13.0 | 0.00 | 0.00 | 0.00 | 53 | 1014.8 |
| 20260506153456 | 48 | 354 | 1.0 | 7.0 | 0.00 | 0.00 | 0.00 | 57 | 1014.5 |
| 20260506152954 | 48 | 340 | 3.0 | 7.0 | 0.00 | 0.00 | 0.00 | 52 | 1014.6 |
| 20260506152450 | 48 | 9 | 4.0 | 8.0 | 0.00 | 0.00 | 0.00 | 58 | 1014.5 |
| 20260506151949 | 48 | 318 | 5.0 | 8.0 | 0.00 | 0.00 | 0.00 | 57 | 1014.6 |
| 20260506151446 | 48 | 24 | 6.0 | 8.0 | 0.00 | 0.00 | 0.00 | 60 | 1014.4 |
| 20260506150943 | 48 | 36 | 4.0 | 7.0 | 0.00 | 0.00 | 0.00 | 59 | 1014.4 |
| 20260506150439 | 48 | 4 | 4.0 | 9.0 | 0.00 | 0.00 | 0.00 | 56 | 1014.4 |
| 20260506145936 | 48 | 329 | 7.0 | 9.0 | 0.00 | 0.00 | 0.00 | 57 | 1014.5 |
| 20260506145432 | 48 | 285 | 4.0 | 4.0 | 0.00 | 0.00 | 0.00 | 57 | 1014.4 |
| 20260506144930 | 47 | 334 | 3.0 | 7.0 | 0.00 | 0.00 | 0.00 | 60 | 1014.3 |
| 20260506144426 | 48 | 308 | 5.0 | 8.0 | 0.00 | 0.00 | 0.00 | 58 | 1014.5 |
| 20260506143925 | 48 | 318 | 6.0 | 8.0 | 0.00 | 0.00 | 0.00 | 58 | 1014.3 |
| 20260506143421 | 48 | 288 | 3.0 | 6.0 | 0.00 | 0.00 | 0.00 | 55 | 1014.4 |
| 20260506142920 | 48 | 302 | 8.0 | 10.0 | 0.00 | 0.00 | 0.00 | 57 | 1014.2 |
| 20260506142418 | 47 | 336 | 5.0 | 9.0 | 0.00 | 0.00 | 0.00 | 60 | 1014.3 |
| 20260506141915 | 46 | 19 | 7.0 | 10.0 | 0.00 | 0.00 | 0.00 | 58 | 1014.1 |
| 20260506141413 | 46 | 308 | 11.0 | 11.0 | 0.00 | 0.00 | 0.00 | 60 | 1014.0 |
| 20260506140911 | 46 | 319 | 7.0 | 9.0 | 0.00 | 0.00 | 0.00 | 61 | 1013.8 |
| 20260506140408 | 46 | 342 | 3.0 | 4.0 | 0.00 | 0.00 | 0.00 | 64 | 1013.7 |
| 20260506135905 | 46 | 331 | 3.0 | 4.0 | 0.00 | 0.00 | 0.00 | 62 | 1014.0 |
| 20260506135402 | 46 | 331 | 3.0 | 4.0 | 0.00 | 0.00 | 0.00 | 62 | 1013.7 |
| 20260506134858 | 46 | 327 | 5.0 | 6.0 | 0.00 | 0.00 | 0.00 | 60 | 1013.6 |
| 20260506134354 | 46 | 327 | 5.0 | 6.0 | 0.00 | 0.00 | 0.00 | 60 | 1013.5 |
| 20260506133851 | 45 | 330 | 3.0 | 4.0 | 0.00 | 0.00 | 0.00 | 62 | 1013.6 |
| 20260506133348 | 45 | 330 | 3.0 | 4.0 | 0.00 | 0.00 | 0.00 | 62 | 1013.6 |
| 20260506132845 | 45 | 330 | 3.0 | 4.0 | 0.00 | 0.00 | 0.00 | 62 | 1013.8 |
| 20260506132342 | 45 | 341 | 4.0 | 6.0 | 0.00 | 0.00 | 0.00 | 61 | 1013.6 |
| 20260506131840 | 45 | 350 | 5.0 | 7.0 | 0.00 | 0.00 | 0.00 | 61 | 1013.6 |
| 20260506131336 | 45 | 4 | 7.0 | 8.0 | 0.00 | 0.00 | 0.00 | 62 | 1013.5 |
| 20260506130833 | 44 | 348 | 7.0 | 8.0 | 0.00 | 0.00 | 0.00 | 64 | 1013.5 |
| 20260506130329 | 44 | 348 | 7.0 | 8.0 | 0.00 | 0.00 | 0.00 | 64 | 1013.5 |
| 20260506125827 | 44 | 348 | 7.0 | 8.0 | 0.00 | 0.00 | 0.00 | 64 | 1013.4 |
| 20260506125326 | 43 | 337 | 4.0 | 4.0 | 0.00 | 0.00 | 0.00 | 68 | 1013.5 |
| 20260506124824 | 43 | 337 | 4.0 | 4.0 | 0.00 | 0.00 | 0.00 | 68 | 1013.3 |
| 20260506124320 | 43 | 337 | 4.0 | 4.0 | 0.00 | 0.00 | 0.00 | 68 | 1013.1 |
| 20260506123818 | 43 | 337 | 4.0 | 4.0 | 0.00 | 0.00 | 0.00 | 68 | 1013.1 |
| 20260506123317 | 43 | 337 | 4.0 | 4.0 | 0.00 | 0.00 | 0.00 | 68 | 1013.1 |
| 20260506122813 | 43 | 337 | 4.0 | 7.0 | 0.00 | 0.00 | 0.00 | 68 | 1013.3 |
| 20260506122310 | 43 | 317 | 7.0 | 8.0 | 0.00 | 0.00 | 0.00 | 67 | 1012.9 |
| 20260506121808 | 43 | 314 | 4.0 | 6.0 | 0.00 | 0.00 | 0.00 | 69 | 1013.0 |
| 20260506121305 | 43 | 314 | 4.0 | 6.0 | 0.00 | 0.00 | 0.00 | 69 | 1012.6 |
| 20260506120802 | 43 | 314 | 4.0 | 6.0 | 0.00 | 0.00 | 0.00 | 69 | 1012.6 |
| 20260506120300 | 42 | 320 | 4.0 | 4.0 | 0.00 | 0.00 | 0.00 | 70 | 1012.6 |
| 20260506115757 | 42 | 311 | 5.0 | 7.0 | 0.00 | 0.00 | 0.00 | 70 | 1012.8 |
| 20260506115255 | 42 | 319 | 5.0 | 6.0 | 0.00 | 0.00 | 0.00 | 70 | 1012.5 |
| 20260506114753 | 42 | 318 | 4.0 | 6.0 | 0.00 | 0.00 | 0.00 | 71 | 1012.4 |
| 20260506114250 | 42 | 296 | 3.0 | 3.0 | 0.00 | 0.00 | 0.00 | 72 | 1012.5 |
| 20260506113749 | 42 | 318 | 1.0 | 1.0 | 0.00 | 0.00 | 0.00 | 73 | 1012.4 |
| 20260506113246 | 41 | 333 | 4.0 | 4.0 | 0.00 | 0.00 | 0.00 | 73 | 1012.2 |
| 20260506112742 | 41 | 316 | 3.0 | 6.0 | 0.00 | 0.00 | 0.00 | 73 | 1012.3 |
| 20260506112240 | 42 | 336 | 2.0 | 3.0 | 0.00 | 0.00 | 0.00 | 72 | 1012.3 |
| 20260506111737 | 41 | 330 | 1.0 | 1.0 | 0.00 | 0.00 | 0.00 | 74 | 1012.0 |
| 20260506111235 | 40 | 352 | 0.0 | 1.0 | 0.00 | 0.00 | 0.00 | 75 | 1011.8 |
| 20260506110731 | 40 | 5 | 0.0 | 1.0 | 0.00 | 0.00 | 0.00 | 74 | 1011.9 |
| 20260506110229 | 40 | 5 | 1.0 | 2.0 | 0.00 | 0.00 | 0.00 | 74 | 1011.9 |
| 20260506105726 | 39 | 33 | 2.0 | 2.0 | 0.00 | 0.00 | 0.00 | 76 | 1012.0 |
| 20260506105223 | 39 | 5 | 0.0 | 0.0 | 0.00 | 0.00 | 0.00 | 76 | 1011.9 |
| 20260506104721 | 39 | 303 | 1.0 | 2.0 | 0.00 | 0.00 | 0.00 | 76 | 1011.7 |
| 20260506104218 | 39 | 299 | 2.0 | 2.0 | 0.00 | 0.00 | 0.00 | 76 | 1011.6 |
| 20260506103715 | 39 | 305 | 1.0 | 1.0 | 0.00 | 0.00 | 0.00 | 77 | 1011.6 |
| 20260506103212 | 39 | 304 | 1.0 | 1.0 | 0.00 | 0.00 | 0.00 | 77 | 1011.5 |
| 20260506102710 | 39 | 325 | 0.0 | 0.0 | 0.00 | 0.00 | 0.00 | 78 | 1011.5 |
| 20260506102208 | 39 | 316 | 1.0 | 2.0 | 0.00 | 0.00 | 0.00 | 77 | 1011.4 |
| 20260506101704 | 39 | 303 | 1.0 | 1.0 | 0.00 | 0.00 | 0.00 | 77 | 1011.4 |
| 20260506101201 | 39 | 305 | 1.0 | 1.0 | 0.00 | 0.00 | 0.00 | 78 | 1011.5 |
| 20260506100659 | 39 | 326 | 0.0 | 0.0 | 0.00 | 0.00 | 0.00 | 78 | 1011.4 |
| 20260506100157 | 39 | 318 | 0.0 | 1.0 | 0.00 | 0.00 | 0.00 | 77 | 1011.6 |
| 20260506095655 | 40 | 350 | 0.0 | 0.0 | 0.00 | 0.00 | 0.00 | 77 | 1011.4 |
| 20260506095151 | 40 | 340 | 0.0 | 0.0 | 0.00 | 0.00 | 0.00 | 74 | 1011.4 |
| 20260506094649 | 41 | 341 | 0.0 | 0.0 | 0.00 | 0.00 | 0.00 | 71 | 1011.3 |
| 20260506094147 | 41 | 304 | 1.0 | 1.0 | 0.00 | 0.00 | 0.00 | 70 | 1011.3 |
| 20260506093645 | 41 | 323 | 0.0 | 2.0 | 0.00 | 0.00 | 0.00 | 71 | 1011.2 |
| 20260506093142 | 42 | 309 | 1.0 | 2.0 | 0.00 | 0.00 | 0.00 | 71 | 1011.0 |
| 20260506092640 | 42 | 304 | 1.0 | 2.0 | 0.00 | 0.00 | 0.00 | 70 | 1011.1 |
| 20260506092137 | 43 | 312 | 1.0 | 1.0 | 0.00 | 0.00 | 0.00 | 68 | 1010.8 |
| 20260506091635 | 43 | 346 | 1.0 | 1.0 | 0.00 | 0.00 | 0.00 | 67 | 1010.7 |
| 20260506091132 | 43 | 338 | 0.0 | 1.0 | 0.00 | 0.00 | 0.00 | 67 | 1010.7 |
| 20260506090630 | 43 | 341 | 0.0 | 2.0 | 0.00 | 0.00 | 0.00 | 66 | 1010.6 |
| 20260506090126 | 43 | 331 | 2.0 | 2.0 | 0.00 | 0.00 | 0.00 | 66 | 1010.6 |
| 20260506085623 | 43 | 321 | 2.0 | 2.0 | 0.00 | 0.00 | 0.00 | 67 | 1010.9 |
| 20260506085119 | 44 | 318 | 1.0 | 3.0 | 0.00 | 0.00 | 0.00 | 67 | 1010.8 |
| 20260506084616 | 44 | 343 | 0.0 | 2.0 | 0.00 | 0.00 | 0.00 | 66 | 1010.9 |
| 20260506084112 | 44 | 333 | 0.0 | 1.0 | 0.00 | 0.00 | 0.00 | 66 | 1010.6 |
| 20260506083610 | 44 | 340 | 1.0 | 2.0 | 0.00 | 0.00 | 0.00 | 67 | 1011.0 |
| 20260506083107 | 44 | 321 | 4.0 | 4.0 | 0.00 | 0.00 | 0.00 | 65 | 1010.9 |
| 20260506082603 | 44 | 339 | 2.0 | 2.0 | 0.00 | 0.00 | 0.00 | 66 | 1010.5 |
| 20260506082059 | 44 | 351 | 2.0 | 2.0 | 0.00 | 0.00 | 0.00 | 66 | 1010.7 |
| 20260506081558 | 44 | 337 | 1.0 | 3.0 | 0.00 | 0.00 | 0.00 | 66 | 1010.7 |
| 20260506081055 | 44 | 315 | 3.0 | 3.0 | 0.00 | 0.00 | 0.00 | 66 | 1010.9 |
| 20260506080552 | 44 | 328 | 2.0 | 3.0 | 0.00 | 0.00 | 0.00 | 66 | 1010.6 |
| 20260506073033 | 44 | 318 | 3.0 | 4.0 | 0.00 | 0.00 | 0.00 | 68 | 1011.1 |
| 20260506072530 | 44 | 313 | 2.0 | 4.0 | 0.00 | 0.00 | 0.00 | 68 | 1011.0 |
| 20260506072027 | 44 | 315 | 1.0 | 3.0 | 0.00 | 0.00 | 0.00 | 68 | 1011.0 |
| 20260506071525 | 44 | 323 | 3.0 | 3.0 | 0.00 | 0.00 | 0.00 | 67 | 1010.8 |
| 20260506071022 | 44 | 337 | 1.0 | 2.0 | 0.00 | 0.00 | 0.00 | 69 | 1010.7 |
| 20260506070520 | 44 | 331 | 0.0 | 2.0 | 0.00 | 0.00 | 0.00 | 67 | 1010.7 |
| 20260506062457 | 45 | 333 | 2.0 | 4.0 | 0.00 | 0.00 | 0.00 | 66 | 1010.8 |
| 20260506061953 | 45 | 293 | 2.0 | 4.0 | 0.00 | 0.00 | 0.00 | 66 | 1010.9 |
| 20260506061449 | 45 | 306 | 2.0 | 4.0 | 0.00 | 0.00 | 0.00 | 66 | 1010.8 |
| 20260506060947 | 45 | 298 | 3.0 | 4.0 | 0.00 | 0.00 | 0.00 | 66 | 1010.9 |
| 20260506060445 | 45 | 314 | 4.0 | 4.0 | 0.00 | 0.00 | 0.00 | 65 | 1010.8 |